Fjordprinsessen — LJVE — position and weather

sailwx.info

Track history (hours):
 
Tides and Currents Weather Stations Pressure Air Temp Water Temp Dewpoint Dewpoint Depression Visibility Wind Speed Wind Dir Waves Ship Positions

Fjordprinsessen

Last reported at 2014-Oct-31 06:19 UTC. Time now 2014-Oct-31 07:52 UTC.
Position N 69°35' E 018°51'.

Length 30 m; draft 2.5 m.

Type: High speed craft. MMSI: 259604000.

Date/timePositionNaut miles runAvg speedWind from/ knotsBaromVisibWave heightAir tempDewpointWater temp
2014-Oct-31 06:19N 69°35' E 018°51'4 5.4
2014-Oct-31 05:33N 69°39' E 018°57'0 0.0
2014-Oct-31 04:33N 69°39' E 018°57'0 0.0
2014-Oct-31 03:30N 69°39' E 018°57'0 0.0
2014-Oct-31 02:33N 69°39' E 018°57'0 0.0
2014-Oct-31 01:27N 69°39' E 018°57'0 0.0
2014-Oct-31 00:30N 69°39' E 018°57'0 0.0
2014-Oct-30 23:30N 69°39' E 018°57'0 0.0
2014-Oct-30 22:33N 69°39' E 018°57'0 0.0
2014-Oct-30 21:33N 69°39' E 018°57'0 0.0
2014-Oct-30 20:33N 69°39' E 018°57'0 0.0
2014-Oct-30 19:30N 69°39' E 018°57'5 1.3
2014-Oct-30 15:15N 69°44' E 019°04'5 7.9
2014-Oct-30 14:33N 69°39' E 018°57'0 0.0
2014-Oct-30 13:34N 69°39' E 018°57'0 0.0
2014-Oct-30 12:33N 69°39' E 018°57'0 0.0
2014-Oct-30 11:33N 69°39' E 018°57'0 0.0
2014-Oct-30 10:33N 69°39' E 018°57'0 0.0
2014-Oct-30 09:33N 69°39' E 018°57'5 0.3
2014-Oct-29 18:33N 69°43' E 019°04'5 4.7
2014-Oct-29 17:33N 69°39' E 018°57'4 1.9
2014-Oct-29 15:10N 69°35' E 018°51'4 6.7
2014-Oct-29 14:31N 69°39' E 018°57'0 0.0
2014-Oct-29 13:31N 69°39' E 018°57'0 0.0
2014-Oct-29 12:31N 69°39' E 018°57'0 0.0
2014-Oct-29 11:31N 69°39' E 018°57'0 0.0
2014-Oct-29 10:31N 69°39' E 018°57'0 0.0
2014-Oct-29 09:31N 69°39' E 018°57'0 0.0
2014-Oct-29 08:19N 69°39' E 018°57'4 2.2
2014-Oct-29 06:20N 69°35' E 018°50'4 4.8
2014-Oct-29 05:25N 69°39' E 018°57'0 0.0
2014-Oct-29 04:25N 69°39' E 018°57'0 0.0
2014-Oct-29 03:34N 69°39' E 018°57'0 0.0
2014-Oct-29 02:24N 69°39' E 018°57'0 0.0
2014-Oct-29 01:30N 69°39' E 018°57'0 0.0
2014-Oct-29 00:33N 69°39' E 018°57'0 0.0
2014-Oct-28 23:30N 69°39' E 018°57'0 0.0
2014-Oct-28 22:24N 69°39' E 018°57'0 0.0
2014-Oct-28 21:33N 69°39' E 018°57'0 0.0
2014-Oct-28 20:27N 69°39' E 018°57'0 0.0
2014-Oct-28 19:33N 69°39' E 018°57'6 1.4
2014-Oct-28 15:15N 69°44' E 019°05'6 8.5
2014-Oct-28 14:33N 69°39' E 018°57'0 0.0
2014-Oct-28 13:33N 69°39' E 018°57'0 0.0
2014-Oct-28 12:33N 69°39' E 018°57'0 0.0
2014-Oct-28 11:33N 69°39' E 018°57'0 0.0
2014-Oct-28 10:33N 69°39' E 018°57'0 0.0
2014-Oct-28 09:33N 69°39' E 018°57'0 0.0
2014-Oct-27 09:08N 69°39' E 018°57'0 0.0
2014-Oct-27 08:29N 69°39' E 018°57'7 3.5
2014-Oct-27 06:26N 69°33' E 018°44'7 7.9
2014-Oct-27 05:33N 69°39' E 018°57'0 0.0
2014-Oct-27 04:33N 69°39' E 018°57'0 0.0
2014-Oct-27 03:32N 69°39' E 018°57'0 0.0
2014-Oct-27 02:29N 69°39' E 018°57'0 0.0
2014-Oct-27 01:32N 69°39' E 018°57'0 0.0
2014-Oct-27 00:32N 69°39' E 018°57'0 0.0
2014-Oct-26 23:32N 69°39' E 018°57'0 0.0
2014-Oct-26 22:32N 69°39' E 018°57'0 0.0
2014-Oct-26 21:32N 69°39' E 018°57'5 2.5
2014-Oct-26 19:34N 69°35' E 018°49'5 0.8
2014-Oct-26 13:33N 69°39' E 018°57'0 0.0
2014-Oct-26 12:31N 69°39' E 018°57'0 0.0
2014-Oct-26 11:31N 69°39' E 018°57'0 0.0
2014-Oct-26 10:28N 69°39' E 018°57'0 0.0
2014-Oct-26 09:31N 69°39' E 018°57'0 0.0
2014-Oct-26 08:31N 69°39' E 018°57'0 0.0
2014-Oct-26 07:31N 69°39' E 018°57'0 0.0
2014-Oct-26 06:34N 69°39' E 018°57'0 0.0
2014-Oct-26 05:33N 69°39' E 018°57'0 0.0
2014-Oct-26 04:33N 69°39' E 018°57'0 0.0
2014-Oct-26 03:30N 69°39' E 018°57'0 0.0
2014-Oct-26 02:33N 69°39' E 018°57'0 0.0
2014-Oct-26 01:33N 69°39' E 018°57'0 0.0
2014-Oct-26 00:33N 69°39' E 018°57'0 0.0
2014-Oct-25 23:33N 69°39' E 018°57'0 0.0
2014-Oct-25 22:33N 69°39' E 018°57'0 0.0
2014-Oct-25 21:33N 69°39' E 018°57'0 0.0
2014-Oct-25 20:33N 69°39' E 018°57'0 0.0
2014-Oct-25 19:33N 69°39' E 018°57'0 0.0
2014-Oct-25 18:27N 69°39' E 018°57'0 0.0
2014-Oct-25 17:33N 69°39' E 018°57'0 0.0
2014-Oct-25 16:33N 69°39' E 018°57'0 0.0
2014-Oct-25 15:33N 69°39' E 018°57'0 0.0
2014-Oct-25 14:30N 69°39' E 018°57'0 0.0
2014-Oct-25 13:33N 69°39' E 018°57'0 0.0
2014-Oct-25 12:33N 69°39' E 018°57'0 0.0
2014-Oct-25 11:33N 69°39' E 018°57'0 0.0
2014-Oct-25 10:30N 69°39' E 018°57'0 0.0
2014-Oct-25 09:30N 69°39' E 018°57'0 0.0
2014-Oct-25 08:33N 69°39' E 018°57'0 0.0
2014-Oct-25 07:27N 69°39' E 018°57'0 0.0
2014-Oct-25 06:33N 69°39' E 018°57'0 0.0
2014-Oct-25 05:24N 69°39' E 018°57'0 0.0
2014-Oct-25 04:33N 69°39' E 018°57'0 0.0
2014-Oct-25 03:33N 69°39' E 018°57'0 0.0
2014-Oct-25 02:30N 69°39' E 018°57'0 0.0
2014-Oct-25 01:33N 69°39' E 018°57'0 0.0
2014-Oct-25 00:33N 69°39' E 018°57'0 0.0
2014-Oct-24 23:30N 69°39' E 018°57'0 0.0
2014-Oct-24 22:33N 69°39' E 018°57'0 0.0
2014-Oct-24 21:33N 69°39' E 018°57'7 1.3
2014-Oct-24 16:26N 69°45' E 019°06'14 6.6
2014-Oct-24 14:21N 69°33' E 018°46'7 9.1
2014-Oct-24 13:33N 69°39' E 018°57'0 0.0
2014-Oct-24 12:30N 69°39' E 018°57'0 0.0
2014-Oct-24 11:30N 69°39' E 018°57'0 0.0
2014-Oct-24 10:33N 69°39' E 018°57'0 0.0
2014-Oct-24 09:32N 69°39' E 018°57'0 0.0
2014-Oct-24 08:32N 69°39' E 018°57'0 0.0
2014-Oct-24 07:32N 69°39' E 018°57'7 3.4
2014-Oct-24 05:29N 69°33' E 018°45'7 7.4
2014-Oct-24 04:33N 69°39' E 018°57'0 0.0
2014-Oct-24 03:30N 69°39' E 018°57'0 0.0
2014-Oct-24 02:33N 69°39' E 018°57'0 0.0
2014-Oct-24 01:33N 69°39' E 018°57'0 0.0
2014-Oct-24 00:33N 69°39' E 018°57'0 0.0
2014-Oct-23 23:33N 69°39' E 018°57'0 0.0
2014-Oct-23 22:32N 69°39' E 018°57'0 0.0
2014-Oct-23 21:23N 69°39' E 018°57'0 0.0
2014-Oct-23 20:31N 69°39' E 018°57'0 0.0
2014-Oct-23 19:29N 69°39' E 018°57'0 0.0
2014-Oct-23 18:32N 69°39' E 018°57'0 0.0
2014-Oct-23 17:32N 69°39' E 018°57'0 0.0
2014-Oct-23 16:32N 69°39' E 018°57'0 0.0
2014-Oct-23 15:29N 69°39' E 018°57'0 0.0
2014-Oct-23 14:29N 69°39' E 018°57'0 0.0
2014-Oct-23 13:32N 69°39' E 018°57'0 0.0
2014-Oct-23 12:32N 69°39' E 018°57'0 0.0
2014-Oct-23 11:29N 69°39' E 018°57'0 0.0
2014-Oct-23 10:29N 69°39' E 018°57'0 0.0
2014-Oct-23 09:32N 69°39' E 018°57'0 0.0
2014-Oct-23 08:31N 69°39' E 018°57'0 0.0
2014-Oct-23 07:31N 69°39' E 018°57'0 0.0
2014-Oct-23 06:28N 69°39' E 018°57'0 0.0
2014-Oct-23 05:31N 69°39' E 018°57'0 0.0
2014-Oct-23 04:28N 69°39' E 018°57'0 0.0
2014-Oct-23 03:31N 69°39' E 018°57'0 0.0
2014-Oct-23 02:31N 69°39' E 018°57'0 0.0
2014-Oct-23 01:28N 69°39' E 018°57'0 0.0
2014-Oct-23 00:25N 69°39' E 018°57'0 0.0
2014-Oct-22 23:31N 69°39' E 018°57'0 0.0
2014-Oct-22 22:30N 69°39' E 018°57'0 0.0
2014-Oct-22 21:30N 69°39' E 018°57'0 0.0
2014-Oct-22 20:24N 69°39' E 018°57'0 0.0
2014-Oct-22 19:33N 69°39' E 018°57'0 0.0
2014-Oct-22 18:33N 69°39' E 018°57'0 0.0
2014-Oct-22 17:27N 69°39' E 018°57'0 0.0
2014-Oct-22 16:33N 69°39' E 018°57'4 1.8
2014-Oct-22 14:13N 69°35' E 018°51'4 5.6
2014-Oct-22 13:28N 69°39' E 018°57'0 0.0
2014-Oct-22 12:19N 69°39' E 018°57'0 0.0
2014-Oct-22 11:31N 69°39' E 018°57'0 0.0
2014-Oct-22 10:25N 69°39' E 018°57'0 0.0
2014-Oct-22 09:31N 69°39' E 018°57'0 0.0
2014-Oct-22 08:28N 69°39' E 018°57'0 0.0
2014-Oct-22 07:31N 69°39' E 018°57'6 2.8
2014-Oct-22 05:24N 69°34' E 018°48'6 6.6
2014-Oct-22 04:31N 69°39' E 018°57'0 0.0
2014-Oct-22 03:28N 69°39' E 018°57'0 0.0
2014-Oct-22 02:31N 69°39' E 018°57'0 0.0
2014-Oct-22 01:31N 69°39' E 018°57'0 0.0
2014-Oct-22 00:31N 69°39' E 018°57'0 0.0
2014-Oct-21 23:28N 69°39' E 018°57'0 0.0
2014-Oct-21 22:31N 69°39' E 018°57'0 0.0
2014-Oct-21 21:28N 69°39' E 018°57'0 0.0
2014-Oct-21 20:25N 69°39' E 018°57'0 0.0
2014-Oct-21 19:31N 69°39' E 018°57'0 0.0
2014-Oct-21 18:25N 69°39' E 018°57'6 1.4
2014-Oct-21 14:14N 69°44' E 019°05'6 6.7
2014-Oct-21 13:21N 69°39' E 018°57'0 0.0
2014-Oct-21 12:30N 69°39' E 018°57'0 0.0
2014-Oct-21 11:30N 69°39' E 018°57'0 0.0
2014-Oct-21 10:33N 69°39' E 018°57'0 0.0
2014-Oct-21 09:33N 69°39' E 018°57'0 0.0
2014-Oct-21 08:33N 69°39' E 018°57'  
Track history (hours):
 
Tides and Currents Weather Stations Pressure Air Temp Water Temp Dewpoint Dewpoint Depression Visibility Wind Speed Wind Dir Waves Ship Positions

Fjordprinsessen

Last reported at 2014-Oct-31 06:19 UTC. Time now 2014-Oct-31 07:52 UTC.
Position N 69°35' E 018°51'.

Length 30 m; draft 2.5 m.

Type: High speed craft. MMSI: 259604000.

Date/timePositionNaut miles runAvg speedWind from/ knotsBaromVisibWave heightAir tempDewpointWater temp
2014-Oct-31 06:19N 69°35' E 018°51'4 5.4
2014-Oct-31 05:33N 69°39' E 018°57'0 0.0
2014-Oct-31 04:33N 69°39' E 018°57'0 0.0
2014-Oct-31 03:30N 69°39' E 018°57'0 0.0
2014-Oct-31 02:33N 69°39' E 018°57'0 0.0
2014-Oct-31 01:27N 69°39' E 018°57'0 0.0
2014-Oct-31 00:30N 69°39' E 018°57'0 0.0
2014-Oct-30 23:30N 69°39' E 018°57'0 0.0
2014-Oct-30 22:33N 69°39' E 018°57'0 0.0
2014-Oct-30 21:33N 69°39' E 018°57'0 0.0
2014-Oct-30 20:33N 69°39' E 018°57'0 0.0
2014-Oct-30 19:30N 69°39' E 018°57'5 1.3
2014-Oct-30 15:15N 69°44' E 019°04'5 7.9
2014-Oct-30 14:33N 69°39' E 018°57'0 0.0
2014-Oct-30 13:34N 69°39' E 018°57'0 0.0
2014-Oct-30 12:33N 69°39' E 018°57'0 0.0
2014-Oct-30 11:33N 69°39' E 018°57'0 0.0
2014-Oct-30 10:33N 69°39' E 018°57'0 0.0
2014-Oct-30 09:33N 69°39' E 018°57'5 0.3
2014-Oct-29 18:33N 69°43' E 019°04'5 4.7
2014-Oct-29 17:33N 69°39' E 018°57'4 1.9
2014-Oct-29 15:10N 69°35' E 018°51'4 6.7
2014-Oct-29 14:31N 69°39' E 018°57'0 0.0
2014-Oct-29 13:31N 69°39' E 018°57'0 0.0
2014-Oct-29 12:31N 69°39' E 018°57'0 0.0
2014-Oct-29 11:31N 69°39' E 018°57'0 0.0
2014-Oct-29 10:31N 69°39' E 018°57'0 0.0
2014-Oct-29 09:31N 69°39' E 018°57'0 0.0
2014-Oct-29 08:19N 69°39' E 018°57'4 2.2
2014-Oct-29 06:20N 69°35' E 018°50'4 4.8
2014-Oct-29 05:25N 69°39' E 018°57'0 0.0
2014-Oct-29 04:25N 69°39' E 018°57'0 0.0
2014-Oct-29 03:34N 69°39' E 018°57'0 0.0
2014-Oct-29 02:24N 69°39' E 018°57'0 0.0
2014-Oct-29 01:30N 69°39' E 018°57'0 0.0
2014-Oct-29 00:33N 69°39' E 018°57'0 0.0
2014-Oct-28 23:30N 69°39' E 018°57'0 0.0
2014-Oct-28 22:24N 69°39' E 018°57'0 0.0
2014-Oct-28 21:33N 69°39' E 018°57'0 0.0
2014-Oct-28 20:27N 69°39' E 018°57'0 0.0
2014-Oct-28 19:33N 69°39' E 018°57'6 1.4
2014-Oct-28 15:15N 69°44' E 019°05'6 8.5
2014-Oct-28 14:33N 69°39' E 018°57'0 0.0
2014-Oct-28 13:33N 69°39' E 018°57'0 0.0
2014-Oct-28 12:33N 69°39' E 018°57'0 0.0
2014-Oct-28 11:33N 69°39' E 018°57'0 0.0
2014-Oct-28 10:33N 69°39' E 018°57'0 0.0
2014-Oct-28 09:33N 69°39' E 018°57'0 0.0
2014-Oct-27 09:08N 69°39' E 018°57'0 0.0
2014-Oct-27 08:29N 69°39' E 018°57'7 3.5
2014-Oct-27 06:26N 69°33' E 018°44'7 7.9
2014-Oct-27 05:33N 69°39' E 018°57'0 0.0
2014-Oct-27 04:33N 69°39' E 018°57'0 0.0
2014-Oct-27 03:32N 69°39' E 018°57'0 0.0
2014-Oct-27 02:29N 69°39' E 018°57'0 0.0
2014-Oct-27 01:32N 69°39' E 018°57'0 0.0
2014-Oct-27 00:32N 69°39' E 018°57'0 0.0
2014-Oct-26 23:32N 69°39' E 018°57'0 0.0
2014-Oct-26 22:32N 69°39' E 018°57'0 0.0
2014-Oct-26 21:32N 69°39' E 018°57'5 2.5
2014-Oct-26 19:34N 69°35' E 018°49'5 0.8
2014-Oct-26 13:33N 69°39' E 018°57'0 0.0
2014-Oct-26 12:31N 69°39' E 018°57'0 0.0
2014-Oct-26 11:31N 69°39' E 018°57'0 0.0
2014-Oct-26 10:28N 69°39' E 018°57'0 0.0
2014-Oct-26 09:31N 69°39' E 018°57'0 0.0
2014-Oct-26 08:31N 69°39' E 018°57'0 0.0
2014-Oct-26 07:31N 69°39' E 018°57'0 0.0
2014-Oct-26 06:34N 69°39' E 018°57'0 0.0
2014-Oct-26 05:33N 69°39' E 018°57'0 0.0
2014-Oct-26 04:33N 69°39' E 018°57'0 0.0
2014-Oct-26 03:30N 69°39' E 018°57'0 0.0
2014-Oct-26 02:33N 69°39' E 018°57'0 0.0
2014-Oct-26 01:33N 69°39' E 018°57'0 0.0
2014-Oct-26 00:33N 69°39' E 018°57'0 0.0
2014-Oct-25 23:33N 69°39' E 018°57'0 0.0
2014-Oct-25 22:33N 69°39' E 018°57'0 0.0
2014-Oct-25 21:33N 69°39' E 018°57'0 0.0
2014-Oct-25 20:33N 69°39' E 018°57'0 0.0
2014-Oct-25 19:33N 69°39' E 018°57'0 0.0
2014-Oct-25 18:27N 69°39' E 018°57'0 0.0
2014-Oct-25 17:33N 69°39' E 018°57'0 0.0
2014-Oct-25 16:33N 69°39' E 018°57'0 0.0
2014-Oct-25 15:33N 69°39' E 018°57'0 0.0
2014-Oct-25 14:30N 69°39' E 018°57'0 0.0
2014-Oct-25 13:33N 69°39' E 018°57'0 0.0
2014-Oct-25 12:33N 69°39' E 018°57'0 0.0
2014-Oct-25 11:33N 69°39' E 018°57'0 0.0
2014-Oct-25 10:30N 69°39' E 018°57'0 0.0
2014-Oct-25 09:30N 69°39' E 018°57'0 0.0
2014-Oct-25 08:33N 69°39' E 018°57'0 0.0
2014-Oct-25 07:27N 69°39' E 018°57'0 0.0
2014-Oct-25 06:33N 69°39' E 018°57'0 0.0
2014-Oct-25 05:24N 69°39' E 018°57'0 0.0
2014-Oct-25 04:33N 69°39' E 018°57'0 0.0
2014-Oct-25 03:33N 69°39' E 018°57'0 0.0
2014-Oct-25 02:30N 69°39' E 018°57'0 0.0
2014-Oct-25 01:33N 69°39' E 018°57'0 0.0
2014-Oct-25 00:33N 69°39' E 018°57'0 0.0
2014-Oct-24 23:30N 69°39' E 018°57'0 0.0
2014-Oct-24 22:33N 69°39' E 018°57'0 0.0
2014-Oct-24 21:33N 69°39' E 018°57'7 1.3
2014-Oct-24 16:26N 69°45' E 019°06'14 6.6
2014-Oct-24 14:21N 69°33' E 018°46'7 9.1
2014-Oct-24 13:33N 69°39' E 018°57'0 0.0
2014-Oct-24 12:30N 69°39' E 018°57'0 0.0
2014-Oct-24 11:30N 69°39' E 018°57'0 0.0
2014-Oct-24 10:33N 69°39' E 018°57'0 0.0
2014-Oct-24 09:32N 69°39' E 018°57'0 0.0
2014-Oct-24 08:32N 69°39' E 018°57'0 0.0
2014-Oct-24 07:32N 69°39' E 018°57'7 3.4
2014-Oct-24 05:29N 69°33' E 018°45'7 7.4
2014-Oct-24 04:33N 69°39' E 018°57'0 0.0
2014-Oct-24 03:30N 69°39' E 018°57'0 0.0
2014-Oct-24 02:33N 69°39' E 018°57'0 0.0
2014-Oct-24 01:33N 69°39' E 018°57'0 0.0
2014-Oct-24 00:33N 69°39' E 018°57'0 0.0
2014-Oct-23 23:33N 69°39' E 018°57'0 0.0
2014-Oct-23 22:32N 69°39' E 018°57'0 0.0
2014-Oct-23 21:23N 69°39' E 018°57'0 0.0
2014-Oct-23 20:31N 69°39' E 018°57'0 0.0
2014-Oct-23 19:29N 69°39' E 018°57'0 0.0
2014-Oct-23 18:32N 69°39' E 018°57'0 0.0
2014-Oct-23 17:32N 69°39' E 018°57'0 0.0
2014-Oct-23 16:32N 69°39' E 018°57'0 0.0
2014-Oct-23 15:29N 69°39' E 018°57'0 0.0
2014-Oct-23 14:29N 69°39' E 018°57'0 0.0
2014-Oct-23 13:32N 69°39' E 018°57'0 0.0
2014-Oct-23 12:32N 69°39' E 018°57'0 0.0
2014-Oct-23 11:29N 69°39' E 018°57'0 0.0
2014-Oct-23 10:29N 69°39' E 018°57'0 0.0
2014-Oct-23 09:32N 69°39' E 018°57'0 0.0
2014-Oct-23 08:31N 69°39' E 018°57'0 0.0
2014-Oct-23 07:31N 69°39' E 018°57'0 0.0
2014-Oct-23 06:28N 69°39' E 018°57'0 0.0
2014-Oct-23 05:31N 69°39' E 018°57'0 0.0
2014-Oct-23 04:28N 69°39' E 018°57'0 0.0
2014-Oct-23 03:31N 69°39' E 018°57'0 0.0
2014-Oct-23 02:31N 69°39' E 018°57'0 0.0
2014-Oct-23 01:28N 69°39' E 018°57'0 0.0
2014-Oct-23 00:25N 69°39' E 018°57'0 0.0
2014-Oct-22 23:31N 69°39' E 018°57'0 0.0
2014-Oct-22 22:30N 69°39' E 018°57'0 0.0
2014-Oct-22 21:30N 69°39' E 018°57'0 0.0
2014-Oct-22 20:24N 69°39' E 018°57'0 0.0
2014-Oct-22 19:33N 69°39' E 018°57'0 0.0
2014-Oct-22 18:33N 69°39' E 018°57'0 0.0
2014-Oct-22 17:27N 69°39' E 018°57'0 0.0
2014-Oct-22 16:33N 69°39' E 018°57'4 1.8
2014-Oct-22 14:13N 69°35' E 018°51'4 5.6
2014-Oct-22 13:28N 69°39' E 018°57'0 0.0
2014-Oct-22 12:19N 69°39' E 018°57'0 0.0
2014-Oct-22 11:31N 69°39' E 018°57'0 0.0
2014-Oct-22 10:25N 69°39' E 018°57'0 0.0
2014-Oct-22 09:31N 69°39' E 018°57'0 0.0
2014-Oct-22 08:28N 69°39' E 018°57'0 0.0
2014-Oct-22 07:31N 69°39' E 018°57'6 2.8
2014-Oct-22 05:24N 69°34' E 018°48'6 6.6
2014-Oct-22 04:31N 69°39' E 018°57'0 0.0
2014-Oct-22 03:28N 69°39' E 018°57'0 0.0
2014-Oct-22 02:31N 69°39' E 018°57'0 0.0
2014-Oct-22 01:31N 69°39' E 018°57'0 0.0
2014-Oct-22 00:31N 69°39' E 018°57'0 0.0
2014-Oct-21 23:28N 69°39' E 018°57'0 0.0
2014-Oct-21 22:31N 69°39' E 018°57'0 0.0
2014-Oct-21 21:28N 69°39' E 018°57'0 0.0
2014-Oct-21 20:25N 69°39' E 018°57'0 0.0
2014-Oct-21 19:31N 69°39' E 018°57'0 0.0
2014-Oct-21 18:25N 69°39' E 018°57'6 1.4
2014-Oct-21 14:14N 69°44' E 019°05'6 6.7
2014-Oct-21 13:21N 69°39' E 018°57'0 0.0
2014-Oct-21 12:30N 69°39' E 018°57'0 0.0
2014-Oct-21 11:30N 69°39' E 018°57'0 0.0
2014-Oct-21 10:33N 69°39' E 018°57'0 0.0
2014-Oct-21 09:33N 69°39' E 018°57'0 0.0
2014-Oct-21 08:33N 69°39' E 018°57'  

Dump ship's entire track history